Wind_Speed
33 33 33 34 35 36 37 38 38 38 39 39 40 42 43 45 45 45 46 46 46 46 47 47 47 47 47 46 45 44 44 43 44 44 43 43 43 43 43 42 41 40 40
32 32 32 33 35 36 36 37 38 39 40 40 40 42 44 45 45 45 46 46 47 48 49 49 49 49 48 48 47 46 46 45 46 46 46 45 45 45 45 44 43 42 42
32 32 32 33 34 36 37 38 39 39 40 41 41 43 45 45 45 45 46 47 48 48 49 50 50 50 50 50 49 49 48 47 48 48 48 47 47 46 46 46 45 45 44
32 32 32 33 35 36 37 39 40 41 42 43 43 44 44 44 45 46 47 47 48 49 50 51 51 52 52 52 52 51 51 50 50 50 50 50 50 50 48 47 46 46 46
31 31 32 33 34 35 37 39 40 40 42 43 43 44 45 46 46 47 47 48 48 49 50 52 52 52 52 53 53 53 53 52 52 52 51 51 51 52 51 49 48 48 48
32 32 32 33 34 35 36 38 39 39 41 42 43 44 45 46 47 48 48 48 49 49 50 52 53 54 54 54 54 54 54 54 54 54 54 52 52 52 52 51 50 50 49
32 32 33 34 34 35 36 38 39 39 41 42 43 44 46 47 48 48 49 49 49 49 50 51 52 53 54 54 54 54 54 55 54 54 55 54 54 53 53 53 52 51 50
32 32 33 33 34 35 36 37 38 39 40 41 43 45 46 47 47 48 49 50 50 50 50 51 52 53 54 55 55 54 54 54 54 54 55 55 55 54 53 53 53 53 53
33 33 33 33 34 35 37 38 38 39 40 42 44 45 46 47 48 49 49 49 49 50 50 50 51 53 54 55 55 55 55 56 55 55 55 55 55 56 55 54 54 55 54
35 35 34 34 35 36 37 38 40 41 40 42 44 46 46 47 48 49 49 50 49 49 49 50 51 52 54 54 55 55 55 56 56 55 55 56 56 56 56 55 54 55 55
36 36 37 37 37 38 38 39 40 41 42 42 44 46 47 47 47 49 50 50 50 51 50 50 50 51 52 53 54 55 55 55 55 56 55 55 56 56 56 56 56 55 55
36 37 38 39 38 38 38 39 40 41 42 42 43 45 46 47 47 48 49 49 50 51 51 51 51 51 51 52 53 54 55 55 55 56 55 55 55 56 56 56 56 57 56
37 38 38 38 39 38 38 38 39 40 40 41 42 43 45 47 48 47 48 50 51 51 51 51 51 52 52 53 53 53 54 55 56 56 56 56 56 57 57 58 58 58 58
38 38 38 38 39 39 39 39 39 39 40 40 41 42 43 45 46 48 49 50 50 51 52 52 52 53 54 54 54 54 54 55 56 56 56 56 57 57 58 59 59 59 60
38 38 38 37 37 38 39 39 39 39 39 39 40 41 42 43 44 46 47 48 48 50 51 52 52 52 53 54 54 55 55 55 55 55 56 57 57 58 58 59 59 59 60
38 38 38 37 38 38 38 38 37 37 37 38 39 40 41 42 44 45 46 46 47 48 50 50 50 51 52 52 53 54 55 55 55 55 56 57 58 58 58 59 59 58 59
38 38 39 38 38 38 38 37 37 37 37 38 39 40 41 42 43 45 45 46 46 46 47 48 50 51 51 51 52 53 54 54 55 55 55 56 57 58 59 59 58 57 57
38 38 38 38 38 37 38 37 38 38 38 38 39 39 40 40 41 43 44 45 45 46 47 47 48 49 51 52 52 53 54 54 54 55 55 55 55 55 56 56 56 56 57
39 39 38 38 37 37 37 37 37 38 38 39 39 39 39 39 40 41 41 43 44 44 45 45 46 47 48 49 49 50 50 51 51 51 51 51 51 51 51 52 52 53 53
39 39 38 38 37 37 37 37 37 38 38 38 39 40 39 39 40 40 40 40 41 42 43 44 45 46 46 47 48 48 48 48 48 48 48 48 48 48 49 50 50 51 52
39 39 38 38 38 37 37 37 37 37 38 39 40 40 40 40 39 40 40 41 41 42 42 43 44 45 45 46 46 46 46 46 47 47 47 47 47 48 48 49 49 49 50
39 39 39 38 38 38 38 37 38 38 38 38 38 39 39 39 40 40 40 41 42 42 42 42 43 44 45 45 45 45 45 45 45 45 46 46 47 47 47 48 49 49 50
39 38 38 38 38 38 39 39 39 38 38 37 37 37 38 38 38 39 39 39 40 41 41 41 42 42 42 42 43 43 43 43 44 45 45 46 46 46 46 46 47 48 49
38 37 37 38 38 38 39 39 39 39 38 38 37 37 37 37 37 37 38 38 39 39 39 40 40 40 40 40 41 42 42 42 43 44 44 45 45 46 46 46 47 47 48
37 37 38 38 38 38 38 38 38 38 38 38 37 37 36 36 35 35 35 36 37 37 38 39 39 39 39 40 40 41 41 41 41 42 43 44 44 45 46 46 46 46 45
37 37 37 38 38 38 37 37 37 37 36 36 35 35 34 34 34 34 34 35 35 36 36 36 37 37 39 40 40 41 41 42 42 42 42 43 44 44 44 44 44 44 44
Wind_Direction
272 270 270 269 268 265 261 258 255 254 254 255 253 251 250 250 250 250 249 248 249 249 250 251 251 251 251 251 251 252 254 254 253 253 253 253 254 255 255 256 257 258 259
273 271 270 270 268 265 262 260 256 254 254 255 255 254 252 252 252 252 251 251 251 250 251 251 252 252 252 252 252 252 254 252 252 253 253 255 255 256 257 257 257 260 261
277 274 272 271 270 267 264 262 257 256 256 256 255 254 253 252 252 253 253 253 254 253 253 252 252 252 252 253 253 253 254 254 254 254 255 256 256 256 257 258 259 260 261
280 277 275 274 273 270 266 263 259 258 258 257 257 255 255 254 254 254 253 254 255 255 254 254 254 253 253 253 253 254 255 256 256 257 257 258 258 258 257 258 259 261 262
283 281 278 275 274 271 268 264 261 258 257 256 256 255 255 255 254 254 254 255 256 256 255 255 255 255 255 254 255 255 256 257 257 258 258 258 259 260 260 259 259 261 262
286 284 281 278 275 273 270 266 261 260 258 257 255 255 255 255 255 254 254 255 255 255 256 255 254 254 255 255 255 256 257 257 257 258 258 258 259 260 260 260 260 260 262
287 284 282 280 278 276 272 267 263 262 261 259 257 257 256 256 256 255 255 254 255 255 256 256 255 255 255 256 256 256 257 257 258 259 258 258 259 260 260 260 261 261 261
288 285 283 282 279 277 273 268 266 264 264 261 259 259 259 258 258 257 256 255 255 255 257 257 257 256 256 256 256 256 257 257 257 258 258 258 259 259 260 261 262 262 262
288 286 284 282 280 277 274 272 269 268 266 263 261 261 261 260 259 258 257 255 255 256 257 257 257 257 257 256 256 256 257 257 257 257 258 258 259 259 261 261 262 262 262
287 285 283 282 281 279 277 274 273 270 269 267 263 262 263 262 260 259 258 257 256 257 257 258 257 257 258 258 257 257 257 258 257 257 258 258 258 259 260 260 261 261 262
286 284 283 283 281 280 279 278 277 273 271 269 266 263 263 263 262 260 259 258 258 258 258 258 258 258 258 258 257 257 257 257 258 259 259 258 258 259 260 260 260 260 261
287 286 285 284 283 281 280 279 277 274 273 271 268 265 264 263 262 261 261 260 260 259 259 259 259 259 259 259 258 259 258 258 259 260 260 259 259 259 260 260 260 260 261
289 288 288 285 283 281 281 280 279 276 275 273 270 266 265 263 262 262 262 262 262 261 261 261 261 261 261 260 259 260 259 259 259 259 260 260 260 260 260 260 260 260 261
291 290 289 287 285 283 282 281 281 279 277 274 272 269 267 265 264 263 263 263 262 261 261 261 261 261 261 260 260 261 260 259 259 259 259 260 260 261 261 260 261 261 261
292 291 290 288 287 286 286 283 281 280 278 276 273 271 269 267 265 264 264 263 262 261 261 261 261 261 260 260 260 260 259 259 259 259 259 260 260 261 261 262 261 261 261
293 292 290 288 287 287 286 285 283 281 279 277 274 273 271 269 267 266 265 265 264 263 262 260 260 260 260 260 261 261 260 259 259 259 260 261 261 262 262 262 262 261 260
293 293 291 289 288 287 286 285 284 283 281 279 277 276 275 273 269 266 265 265 265 264 262 260 260 259 259 261 262 262 261 260 259 260 261 262 263 262 262 261 261 261 261
295 294 294 292 290 288 287 286 284 283 283 281 279 277 276 274 271 268 266 266 266 265 263 262 261 259 260 261 262 263 262 261 260 260 261 261 261 261 261 260 260 260 261
296 295 295 294 293 290 288 287 286 285 284 283 281 279 278 275 273 271 269 268 267 266 265 264 262 262 262 263 264 265 264 262 261 260 260 261 261 260 259 260 260 259 260
296 295 294 294 293 292 290 289 287 286 284 283 282 280 279 278 276 274 272 271 269 268 266 264 264 264 264 264 265 266 265 263 261 260 260 261 260 259 260 260 260 260 260
294 295 295 294 293 292 292 291 290 288 285 283 282 281 278 278 276 274 272 271 270 269 267 265 264 265 265 266 266 266 265 264 262 261 261 261 261 260 261 261 261 261 260
294 293 294 294 293 293 293 293 293 291 287 285 283 281 279 277 276 275 274 272 271 270 268 266 265 265 266 266 266 266 266 264 262 261 261 261 261 261 261 262 261 261 262
294 294 293 293 293 293 293 292 292 291 289 286 284 283 280 278 278 277 276 275 274 271 269 267 266 265 266 266 267 267 266 265 263 262 262 261 261 261 261 261 261 262 263
294 293 293 293 293 294 294 294 292 291 290 289 286 284 282 281 281 279 277 276 275 272 270 268 266 266 266 267 266 266 265 265 264 263 261 261 260 261 261 261 262 262 262
295 294 294 294 294 295 295 294 293 292 290 289 287 285 283 283 283 281 279 278 276 274 271 268 267 266 266 266 266 266 265 264 264 262 261 261 261 261 262 262 263 263 262
296 296 296 296 295 295 295 295 294 292 291 289 287 286 285 284 284 282 280 279 278 275 273 271 270 269 268 267 266 266 265 264 264 262 261 260 260 261 261 262 262 262 262
Height
5680 5680 5680 5680 5681 5682 5683 5684 5686 5688 5691 5693 5696 5698 5701 5704 5706 5709 5712 5715 5718 5721 5723 5726 5729 5732 5735 5737 5740 5742 5745 5746 5749 5751 5753 5755 5757 5760 5761 5763 5765 5766 5768
5672 5672 5672 5672 5672 5673 5674 5675 5677 5678 5681 5683 5686 5688 5690 5693 5695 5698 5701 5703 5706 5709 5712 5715 5718 5721 5724 5726 5729 5732 5734 5736 5738 5741 5742 5745 5747 5749 5751 5753 5755 5756 5758
5664 5663 5663 5663 5663 5663 5664 5665 5667 5668 5670 5673 5675 5677 5679 5682 5684 5687 5689 5692 5694 5697 5700 5703 5706 5709 5712 5715 5717 5720 5723 5725 5727 5729 5731 5734 5736 5738 5740 5742 5744 5746 5747
5656 5655 5654 5654 5654 5654 5654 5655 5657 5658 5660 5662 5664 5666 5668 5671 5674 5676 5678 5680 5682 5685 5687 5690 5693 5696 5699 5702 5705 5708 5710 5713 5715 5717 5719 5722 5725 5727 5729 5732 5733 5734 5736
5648 5646 5645 5645 5644 5644 5644 5645 5646 5647 5649 5650 5653 5655 5657 5659 5662 5664 5666 5668 5670 5672 5675 5678 5680 5683 5686 5689 5692 5695 5697 5700 5703 5704 5707 5709 5711 5714 5717 5720 5722 5723 5724
5639 5638 5636 5635 5635 5634 5634 5635 5636 5637 5638 5639 5641 5643 5645 5647 5649 5651 5653 5656 5658 5660 5662 5664 5667 5670 5673 5676 5679 5681 5684 5687 5689 5691 5693 5696 5698 5701 5703 5706 5709 5711 5712
5631 5629 5628 5626 5626 5625 5625 5625 5625 5626 5627 5628 5629 5631 5633 5634 5636 5638 5640 5643 5645 5647 5649 5651 5653 5656 5659 5662 5665 5667 5670 5673 5675 5677 5679 5682 5685 5687 5689 5692 5694 5697 5699
5623 5620 5619 5617 5616 5615 5615 5615 5615 5616 5616 5617 5617 5619 5620 5621 5623 5625 5627 5630 5632 5634 5636 5638 5640 5642 5645 5647 5650 5653 5656 5658 5661 5663 5665 5668 5671 5673 5675 5678 5680 5682 5685
5614 5612 5610 5608 5607 5605 5605 5604 5604 5604 5605 5605 5605 5606 5608 5609 5610 5612 5614 5616 5618 5620 5623 5625 5627 5628 5630 5633 5636 5639 5641 5644 5646 5649 5651 5654 5656 5658 5661 5663 5665 5667 5670
5605 5603 5601 5599 5597 5596 5595 5594 5593 5593 5592 5593 5593 5594 5594 5595 5597 5598 5600 5602 5604 5606 5609 5611 5613 5614 5616 5618 5621 5624 5627 5629 5632 5634 5636 5639 5641 5643 5646 5648 5650 5652 5654
5596 5594 5592 5589 5587 5586 5584 5583 5581 5581 5581 5580 5580 5581 5581 5582 5583 5585 5586 5588 5590 5592 5594 5596 5598 5600 5602 5604 5606 5609 5612 5614 5617 5619 5621 5624 5626 5628 5630 5632 5634 5636 5638
5585 5584 5582 5580 5578 5576 5574 5572 5570 5569 5568 5568 5567 5567 5568 5569 5570 5571 5573 5574 5576 5578 5580 5582 5584 5586 5587 5589 5591 5594 5597 5599 5602 5604 5606 5608 5610 5613 5615 5617 5619 5621 5623
5576 5573 5571 5570 5567 5565 5563 5561 5559 5558 5557 5555 5555 5555 5555 5556 5557 5558 5559 5560 5562 5563 5565 5567 5569 5571 5572 5574 5576 5578 5581 5583 5586 5588 5590 5593 5595 5597 5599 5601 5603 5605 5607
5566 5564 5561 5559 5557 5555 5553 5551 5549 5547 5545 5544 5543 5543 5543 5543 5543 5544 5545 5546 5547 5549 5551 5552 5554 5556 5557 5559 5561 5563 5565 5567 5570 5572 5574 5576 5579 5581 5583 5585 5587 5589 5591
5557 5554 5551 5549 5547 5544 5542 5540 5538 5536 5534 5533 5532 5531 5531 5530 5530 5531 5531 5532 5533 5534 5536 5537 5539 5540 5542 5543 5545 5547 5549 5551 5554 5556 5558 5560 5562 5564 5566 5568 5570 5572 5574
5548 5544 5541 5539 5536 5534 5532 5529 5527 5525 5523 5522 5520 5519 5518 5517 5517 5518 5518 5518 5519 5520 5521 5522 5524 5525 5527 5528 5530 5531 5533 5536 5538 5540 5542 5544 5546 5547 5549 5551 5553 5555 5558
5538 5534 5531 5528 5526 5523 5521 5518 5516 5514 5512 5510 5509 5507 5506 5505 5505 5505 5505 5505 5505 5506 5507 5508 5509 5511 5512 5513 5514 5515 5517 5520 5522 5524 5526 5527 5529 5530 5532 5534 5536 5538 5540
5527 5524 5521 5518 5515 5512 5510 5507 5505 5503 5501 5499 5497 5495 5494 5493 5492 5491 5491 5492 5492 5492 5493 5494 5495 5496 5498 5499 5499 5500 5502 5504 5506 5508 5509 5511 5513 5514 5515 5518 5520 5522 5525
5517 5514 5510 5507 5504 5501 5499 5496 5494 5492 5489 5487 5485 5483 5482 5480 5479 5479 5478 5478 5478 5479 5479 5480 5481 5482 5483 5484 5485 5486 5487 5488 5490 5492 5493 5495 5497 5498 5500 5502 5505 5507 5509
5507 5503 5500 5497 5494 5491 5488 5485 5483 5480 5478 5476 5473 5471 5470 5468 5467 5467 5466 5466 5466 5466 5466 5467 5467 5468 5469 5470 5471 5471 5472 5474 5476 5477 5479 5480 5482 5483 5484 5487 5489 5492 5494
5496 5493 5489 5486 5483 5480 5477 5474 5472 5469 5466 5463 5461 5459 5458 5457 5455 5455 5454 5453 5453 5453 5453 5454 5454 5455 5456 5456 5457 5458 5458 5460 5461 5463 5465 5467 5468 5469 5470 5472 5474 5476 5478
5485 5482 5478 5475 5473 5470 5466 5463 5460 5457 5454 5452 5449 5447 5446 5444 5443 5442 5441 5441 5440 5440 5440 5440 5441 5441 5442 5443 5444 5445 5445 5446 5447 5450 5451 5453 5454 5455 5456 5458 5459 5461 5462
5475 5471 5468 5465 5462 5459 5455 5452 5449 5446 5443 5440 5437 5435 5434 5432 5431 5430 5429 5429 5428 5427 5427 5427 5428 5429 5429 5430 5431 5431 5432 5432 5434 5436 5437 5439 5440 5441 5442 5444 5445 5446 5447
5463 5460 5457 5454 5451 5447 5443 5440 5437 5434 5431 5428 5426 5424 5423 5421 5419 5418 5417 5416 5416 5415 5415 5415 5416 5416 5417 5417 5418 5418 5419 5420 5420 5422 5423 5425 5426 5427 5428 5429 5430 5432 5433
5453 5449 5446 5443 5440 5436 5432 5428 5425 5422 5419 5417 5415 5413 5411 5410 5408 5407 5405 5404 5404 5403 5403 5403 5403 5404 5405 5405 5405 5405 5406 5407 5408 5409 5410 5411 5412 5414 5415 5416 5417 5418 5419
5442 5439 5435 5432 5428 5424 5421 5417 5414 5411 5408 5406 5404 5402 5400 5399 5397 5396 5394 5393 5392 5391 5391 5391 5391 5391 5392 5392 5392 5393 5393 5394 5395 5395 5397 5398 5399 5401 5402 5403 5404 5405 5406